Dewpoint
65 68 66 64 63 66 66 66 66 68 70 70 71 71 70 71 72 72 73 74 73 73 74 74 74 74 73 74 74 74 75 74 74 75 75 75 74 74 74 74 74 72
65 68 68 65 64 66 66 66 67 68 70 70 71 71 71 71 72 72 73 73 73 73 73 74 74 74 73 73 74 74 74 74 73 75 75 75 74 74 74 74 74 73
66 66 68 65 63 65 64 65 66 68 69 70 71 71 71 72 71 71 72 72 73 72 73 75 74 74 73 73 74 73 73 74 73 74 74 74 74 74 74 74 74 73
65 65 67 66 64 64 64 65 65 67 68 69 70 70 71 71 71 71 71 74 72 72 72 74 74 74 74 74 74 73 73 73 73 74 74 74 74 73 73 73 73 73
65 65 66 66 65 65 65 64 64 64 67 68 70 70 71 71 71 70 71 72 72 72 72 72 74 74 74 73 74 73 73 73 73 73 73 73 73 73 72 72 72 72
65 65 66 66 66 66 65 64 64 64 64 67 68 70 70 69 70 69 71 71 72 72 72 72 73 74 74 73 74 73 73 73 73 73 73 73 73 74 72 72 72 72
65 65 65 65 65 65 65 65 64 64 63 64 68 69 69 69 68 69 69 72 72 72 72 72 73 74 74 73 74 74 73 73 73 73 73 73 73 73 73 72 71 71
66 65 65 65 64 64 64 65 65 65 64 65 65 67 69 69 68 68 68 70 72 72 72 72 73 73 74 73 73 73 73 73 73 73 73 73 73 72 72 73 72 71
66 65 65 64 64 63 63 63 66 66 66 65 65 66 68 68 68 68 68 68 70 72 72 72 72 73 73 74 73 73 73 73 73 73 73 73 72 72 72 72 73 72
67 66 65 64 63 63 62 62 62 65 68 67 66 66 66 67 67 68 68 69 68 70 71 72 72 72 73 73 73 73 73 73 73 73 73 73 72 72 72 72 72 72
67 67 66 65 63 62 62 62 61 61 64 67 67 66 66 66 66 66 68 69 68 68 70 71 71 72 72 72 73 73 73 73 73 72 73 73 73 72 74 72 72 72
67 67 66 65 64 63 62 61 61 60 60 63 66 66 66 66 66 64 66 69 69 68 69 70 71 72 72 72 72 73 73 73 73 72 72 72 73 73 73 73 73 72
68 67 67 66 65 64 63 62 61 61 60 60 63 64 65 65 66 65 64 66 69 69 69 69 70 70 71 72 71 72 73 73 72 72 72 72 72 73 73 73 73 73
69 68 68 67 66 66 64 63 61 61 61 60 61 62 62 63 65 66 65 64 67 69 69 69 69 69 70 71 71 71 72 72 72 72 72 72 72 72 72 73 73 73
71 70 70 69 68 67 66 64 63 62 62 61 61 61 62 62 63 64 66 65 64 67 69 70 70 69 69 70 71 71 71 72 72 72 72 72 72 72 72 72 72 73
72 72 71 70 70 69 68 66 64 63 62 62 62 61 62 62 62 63 64 65 65 65 67 70 71 71 69 66 68 70 71 71 72 72 72 72 72 72 72 72 71 72
72 72 72 71 71 70 69 68 67 65 64 64 63 63 63 63 63 63 63 64 65 65 65 67 69 70 67 64 65 66 70 71 71 72 72 72 72 71 71 72 72 72
72 72 72 72 71 71 70 69 68 67 66 65 64 64 65 64 63 63 64 64 65 65 65 65 67 66 64 64 64 64 67 71 70 71 72 72 72 71 71 71 71 71
72 72 72 72 72 71 71 70 69 68 67 66 65 65 65 65 64 64 64 64 65 66 66 66 66 64 63 63 63 63 63 68 70 70 71 71 71 72 71 71 71 71
73 72 72 72 72 72 71 70 69 69 68 67 66 66 66 65 65 64 64 64 65 65 67 67 67 65 61 61 62 62 63 65 70 70 70 70 71 71 71 72 71 71
71 72 72 72 72 72 71 71 70 69 69 68 67 66 66 66 65 65 64 65 65 65 66 67 68 64 61 59 60 60 62 64 69 70 70 70 71 71 71 71 71 72
70 71 72 72 72 71 71 71 70 70 69 68 68 66 66 66 67 66 65 65 65 65 66 66 67 63 61 59 59 59 61 67 69 70 70 70 70 71 71 71 71 71
70 70 71 72 72 71 71 70 70 70 70 69 68 67 66 66 67 67 67 66 66 66 66 66 67 64 60 59 58 59 60 68 69 70 71 70 70 70 70 71 71 71
70 70 71 71 71 71 71 70 70 70 70 70 68 67 66 66 66 67 67 67 66 66 67 67 67 65 59 58 58 58 62 68 69 70 70 71 71 70 70 70 71 75
69 70 70 71 71 71 71 71 70 70 70 70 69 68 67 67 67 67 67 68 67 67 68 68 68 66 58 58 57 57 62 68 70 70 70 71 71 71 71 70 70 73
69 70 70 71 71 71 71 71 71 71 70 69 69 68 67 67 67 67 67 68 68 68 68 68 69 69 65 57 57 56 58 68 70 70 70 70 71 71 71 71 71 71